Tracking 30995 objects as of 5-Jul-2025
HD Live streaming from Space Station
objects crossing your sky now

OPS 6431

Track OPS 6431 now!
10-day predictions
OPS 6431 is classified as:


NORAD ID: 8818
Int'l Code: 1976-038A
Perigee: 641.8 km
Apogee: 1,219.7 km
Inclination: 63.4 °
Period: 103.5 minutes
Semi major axis: 7301 km
RCS: Unknown
Launch date: April 30, 1976
Source: United States (US)
Launch site: AIR FORCE WESTERN TEST RANGE (AFWTR)
Your satellite tracking list
Your tracking list is empty




NASA's NSSDC Master Catalog

Two Line Element Set (TLE):
1 08818U 76038A   25186.59977818  .00000280  00000-0  16485-3 0  9992
2 08818  63.3552 324.0939 0395718 177.7900 182.5022 13.91438805 58998
Source of the keplerian elements: McCants